Temperature
9 9 9 10 11 12 12 12 13 14 15 15 14 14 16 17 18 17 18 18 18 18 18 18 18 17 17 16 16 16 16 16 15 15 15 15 15 15 14 14 14 14 14 14
9 9 10 11 11 12 12 12 12 13 14 14 14 14 15 16 17 18 18 18 18 18 18 18 18 17 17 16 16 16 16 16 15 15 15 15 15 15 14 14 14 14 14 14
9 10 11 11 11 11 12 12 12 12 13 14 13 13 14 16 17 18 18 18 18 18 18 18 18 17 17 16 16 16 16 16 16 15 15 15 15 14 14 14 14 14 14 14
10 10 11 11 11 12 11 13 12 12 12 12 13 11 14 15 15 16 17 18 18 18 18 18 17 17 17 16 16 16 16 16 15 15 15 15 15 15 15 14 14 14 14 14
9 10 10 10 11 12 11 12 12 12 12 11 12 12 13 15 15 16 16 18 18 18 17 17 17 17 16 16 16 16 16 15 15 15 15 15 15 14 14 14 14 14 14 14
10 10 10 11 11 12 12 12 12 11 10 9 11 12 12 14 15 16 17 17 18 17 17 17 17 16 16 16 16 16 15 15 15 15 15 15 14 14 14 14 14 13 13 13
9 10 10 11 10 11 11 10 9 9 8 9 12 12 13 16 16 16 16 17 17 17 17 16 16 16 15 15 15 15 15 15 15 15 14 14 14 14 14 13 13 13 13 12
8 8 10 10 10 10 10 10 9 9 9 10 13 12 14 16 17 17 16 16 16 16 16 16 15 15 15 15 15 14 14 14 14 14 14 14 14 13 13 13 13 12 12 12
9 9 11 11 11 10 10 9 10 9 9 10 11 13 15 16 15 16 16 16 15 15 15 14 14 14 14 14 14 13 13 13 13 13 13 13 13 13 13 12 12 12 12 11
10 9 10 10 10 10 10 10 9 8 8 9 11 12 13 14 14 14 14 15 15 14 14 13 13 13 13 13 12 12 12 12 12 12 12 13 13 12 12 12 11 11 11 10
10 8 9 9 9 9 9 9 9 9 9 9 10 11 14 14 14 14 14 14 14 14 13 13 12 12 12 11 11 11 11 11 11 11 12 12 12 11 11 11 11 10 10 10
10 9 8 9 10 10 10 10 9 8 8 9 9 10 14 13 13 14 14 14 13 13 12 12 11 11 11 10 10 10 10 10 10 11 11 11 11 11 10 10 10 9 9 9
9 8 7 8 8 9 9 9 10 9 8 8 8 10 13 13 13 14 13 13 13 12 12 11 11 10 10 10 9 9 10 10 10 10 10 10 10 10 9 9 9 9 8 8
9 8 7 7 8 8 8 8 9 8 7 7 8 10 12 12 12 13 13 13 13 12 12 11 10 10 9 9 9 9 9 9 10 10 10 10 9 9 9 9 8 8 7 7
8 7 7 8 9 9 8 8 9 8 7 7 8 10 11 12 12 12 12 12 12 12 11 11 10 10 9 9 8 9 9 9 9 9 9 9 9 8 8 8 7 7 6 6
8 7 7 7 9 9 8 9 9 9 9 8 9 9 11 12 12 12 12 12 12 11 11 11 10 10 9 9 8 8 9 9 9 9 9 8 8 8 7 7 6 6 5 5
8 7 6 6 8 8 7 9 9 9 9 9 9 10 11 11 11 11 11 11 11 11 10 10 10 10 9 9 9 8 9 9 9 9 8 8 8 7 7 6 6 5 5 4
7 7 6 6 6 5 8 10 10 10 10 10 10 10 10 10 11 11 10 10 10 10 10 10 10 9 9 9 8 8 8 8 8 8 8 8 7 7 6 5 5 4 4 3
8 7 6 5 5 6 9 9 9 9 9 9 9 9 10 10 10 9 9 9 9 9 9 9 9 9 9 9 8 8 8 8 8 8 7 7 7 6 6 5 4 4 3 3
7 7 5 5 5 6 8 9 9 9 7 8 8 8 8 9 7 8 8 8 8 8 8 8 8 8 8 8 8 8 8 8 8 7 7 7 6 6 5 4 4 3 3 2
6 5 5 5 5 6 8 8 8 7 6 7 8 7 7 7 7 7 7 7 7 8 8 8 8 8 8 8 8 8 7 7 7 7 6 6 5 5 4 4 3 3 2 1
6 5 5 5 5 5 7 7 6 6 7 7 7 6 6 6 7 7 7 7 7 7 7 7 7 7 7 7 7 7 7 7 6 6 6 5 5 4 4 3 3 2 1 1
6 6 5 5 6 6 7 6 6 6 6 6 5 5 6 6 6 6 6 6 6 6 6 6 6 6 6 6 6 6 6 6 6 5 5 4 4 4 3 3 2 2 1 0
6 6 5 5 6 7 6 6 5 5 5 5 5 5 5 5 5 5 5 5 5 6 6 6 6 6 6 6 6 5 5 5 5 5 4 4 3 3 3 2 2 1 1 0
5 5 4 4 5 6 5 5 4 4 4 4 4 4 4 4 4 4 4 5 5 5 5 5 5 5 5 5 5 5 5 5 4 4 4 3 3 2 2 2 1 1 0 0
4 4 3 3 4 3 4 3 3 3 3 3 3 3 4 4 4 4 4 4 4 5 5 5 5 5 5 5 5 5 4 4 4 3 3 2 2 2 1 1 1 0 -0 -0
Wind_Speed
2 2 3 6 7 4 5 6 7 6 6 8 9 10 10 8 9 10 10 10 9 8 7 8 8 8 7 6 6 7 7 7 6 5 5 5 4 4 3 3 5 4 3 4
2 1 2 1 2 4 5 6 5 2 4 5 7 10 10 10 10 10 11 11 10 8 7 7 8 8 8 8 8 7 7 6 6 5 5 4 4 3 3 3 4 4 3 1
2 1 0 2 3 5 6 4 3 2 2 5 5 8 11 11 11 11 10 10 9 10 10 9 9 8 7 7 8 7 7 6 6 6 4 4 3 3 2 3 3 3 4 3
1 1 1 2 3 4 3 1 1 2 2 4 6 5 9 12 12 12 11 10 10 9 9 8 9 9 8 6 6 6 6 6 6 6 6 6 5 4 4 4 4 4 4 3
1 1 2 2 2 2 0 2 1 3 4 4 6 6 7 10 12 13 12 12 11 10 9 8 8 9 8 7 6 5 5 6 5 5 6 6 5 4 4 4 5 4 4 4
0 1 1 2 1 1 0 1 2 2 2 5 9 8 6 7 11 11 12 11 10 9 8 8 7 8 7 7 6 5 6 5 5 5 5 5 5 5 5 4 4 3 3 3
1 3 2 2 2 2 3 2 2 3 4 7 8 7 7 5 4 4 4 5 5 5 6 7 8 9 9 9 7 6 6 6 5 5 5 5 5 5 5 4 4 4 3 2
3 3 6 5 4 3 6 5 3 3 4 4 5 7 6 5 3 4 2 2 2 2 3 5 7 8 9 10 9 7 7 7 6 6 6 6 6 4 4 4 4 4 3 4
3 1 4 4 3 2 4 5 3 3 5 3 5 6 6 4 4 4 4 3 3 4 4 4 5 7 8 9 9 8 8 7 7 7 7 7 6 6 6 5 5 4 4 4
2 1 4 4 2 4 4 3 2 3 3 4 6 8 5 6 6 5 3 3 2 3 4 4 5 6 7 8 8 8 8 8 7 7 6 6 7 6 6 5 5 5 5 4
2 1 2 4 6 7 6 4 4 4 4 3 3 2 3 3 4 4 3 3 3 3 3 4 4 5 7 7 8 8 8 8 8 8 7 7 6 6 6 5 5 5 4 3
2 2 3 6 5 4 6 8 7 4 5 4 3 4 3 5 5 4 3 4 3 4 3 4 6 6 6 7 7 7 8 8 8 8 8 8 7 6 6 5 5 5 4 4
1 2 2 3 3 4 5 7 8 6 4 5 5 4 0 2 2 1 1 2 3 4 4 4 5 6 7 7 7 7 7 8 8 8 8 8 7 7 6 6 5 5 4 4
2 3 5 5 3 2 4 7 8 7 6 7 9 9 6 4 3 3 3 3 3 4 5 6 6 7 7 8 8 8 8 8 8 8 8 8 8 7 7 6 6 5 4 4
2 4 6 9 9 7 8 9 10 11 10 9 10 11 10 7 6 5 4 4 4 4 4 6 7 7 8 8 8 8 8 8 8 8 8 8 8 7 7 6 6 5 4 4
3 4 5 8 9 9 11 12 13 14 14 15 15 16 11 9 7 7 6 6 6 5 5 6 7 7 8 9 9 9 9 9 9 9 8 8 8 8 7 7 6 5 5 4
3 3 3 5 6 7 9 11 13 12 11 11 14 12 8 8 7 6 5 5 6 6 5 5 6 7 8 9 9 10 10 9 10 9 9 9 9 8 7 7 6 6 5 4
5 4 3 4 4 6 5 1 3 7 9 8 8 8 7 7 7 5 4 5 6 5 4 4 4 5 5 7 8 9 9 10 9 9 9 9 9 9 8 7 6 6 5 4
6 5 3 3 5 8 4 1 1 3 5 3 5 6 6 6 5 4 3 3 3 4 4 3 3 3 4 5 8 9 10 9 9 10 10 10 10 10 9 8 7 5 5 4
3 4 4 4 5 5 1 3 3 2 2 7 7 7 8 6 4 3 6 6 5 5 4 3 1 1 3 4 7 9 10 10 10 10 9 10 10 10 9 8 7 5 5 5
2 4 6 7 6 6 2 2 2 1 2 7 7 7 7 5 4 5 6 5 5 4 3 3 1 1 2 4 6 8 8 9 8 8 9 9 9 9 8 8 6 7 6 6
3 3 4 4 6 5 3 3 2 3 5 6 7 7 7 7 7 7 6 5 4 3 3 3 2 2 2 3 5 6 6 6 7 8 9 9 8 8 8 8 7 7 7 7
3 2 2 4 4 2 2 3 3 4 6 6 7 7 7 8 8 7 6 4 3 2 2 2 2 2 1 2 4 5 5 7 8 8 8 8 8 7 8 8 8 7 7 6
2 2 3 5 4 4 5 5 6 6 7 8 7 8 8 8 8 8 6 4 3 1 1 1 1 1 1 2 3 4 6 7 8 8 8 8 8 8 8 7 7 7 8 7
4 2 3 6 6 6 3 6 8 9 8 8 8 8 8 8 8 7 6 5 3 2 1 0 1 1 1 2 3 4 6 7 7 8 8 8 8 8 8 7 8 8 8 9
2 1 2 4 5 6 8 8 9 10 10 9 9 10 8 7 7 7 5 3 3 2 1 1 1 1 1 2 3 4 5 6 7 6 7 6 6 6 6 6 5 9 9 12
Wind_Direction
184 169 190 197 213 241 222 220 223 211 192 199 224 235 243 242 214 217 226 231 222 209 193 173 160 162 166 177 183 180 177 176 169 165 170 174 178 173 158 148 158 169 185 192
141 189 231 222 273 264 223 219 225 200 184 204 238 243 239 238 229 221 218 223 220 211 193 176 162 165 174 179 182 180 178 174 169 167 167 162 156 156 158 151 147 151 148 156
138 114 223 193 217 235 215 211 207 189 199 227 249 250 237 234 236 231 224 226 224 209 200 183 169 171 174 179 179 173 168 166 162 154 141 129 120 123 149 162 154 132 126 109
71 116 208 210 223 235 216 216 256 226 215 230 212 247 233 222 222 224 220 218 223 221 209 188 170 170 174 170 155 157 157 157 157 156 157 162 166 171 178 165 155 141 138 132
88 144 200 214 249 265 355 30 260 258 259 274 233 248 258 220 215 216 214 212 213 211 205 192 173 164 158 146 141 146 148 153 155 160 164 167 169 160 141 135 144 150 143 136
282 344 291 272 294 324 148 182 253 267 279 261 234 228 264 230 212 208 204 204 207 200 192 188 165 146 139 133 137 147 153 154 152 154 154 156 153 141 136 137 145 139 131 123
202 198 199 253 211 193 209 168 179 203 216 240 219 222 245 245 205 188 191 198 201 188 179 173 160 157 154 152 155 160 160 157 153 147 141 137 134 136 141 143 145 136 126 112
193 206 189 199 217 194 213 214 216 220 220 240 207 224 245 238 155 137 144 184 181 182 174 170 166 161 158 157 160 166 163 156 151 142 130 118 114 113 110 100 99 98 98 96
212 199 147 177 217 244 218 221 250 298 289 264 231 239 238 201 156 157 175 191 199 181 170 171 158 151 155 158 164 167 158 151 147 139 128 119 111 105 103 94 88 89 90 90
309 235 177 164 202 242 266 291 221 211 249 252 236 230 231 187 180 172 170 165 159 145 149 155 157 158 156 155 156 156 155 151 143 135 127 120 113 110 109 103 100 94 87 83
282 245 180 174 209 210 198 221 236 238 248 259 269 268 17 79 129 149 151 136 136 138 153 159 154 149 144 143 149 152 151 145 141 134 127 122 115 111 108 106 103 99 95 92
236 243 236 225 217 234 234 222 215 230 253 248 268 276 18 54 67 79 107 116 115 127 144 158 153 146 147 152 156 156 152 149 146 140 136 129 123 121 120 117 111 108 106 95
232 209 247 238 217 211 242 244 238 243 267 254 248 258 67 79 82 63 105 140 154 157 162 165 160 162 166 167 166 162 159 154 147 142 138 136 137 137 132 124 115 109 108 106
302 238 231 247 265 209 231 236 236 232 236 250 245 262 270 269 268 267 258 233 217 195 184 184 179 179 178 176 173 169 164 155 151 148 148 148 147 141 132 124 119 117 115 113
231 254 256 268 274 262 253 249 236 231 234 242 259 268 275 286 290 296 296 287 266 243 218 202 191 189 183 179 175 169 163 158 155 152 153 151 141 133 129 128 130 127 124 121
231 260 275 273 266 259 259 254 248 242 241 248 261 268 270 282 288 291 287 285 273 259 238 220 207 197 189 183 177 170 167 163 157 158 157 147 141 139 140 142 143 140 138 136
234 255 276 273 283 286 261 244 240 239 239 242 252 263 283 288 290 293 297 292 281 269 254 234 219 207 196 186 176 174 168 160 159 160 156 152 151 150 151 152 149 150 151 146
247 263 264 284 298 252 248 293 265 259 260 252 260 277 287 293 300 298 301 300 293 289 275 253 227 210 192 176 166 161 156 157 161 162 161 159 158 156 154 155 160 157 151 152
228 235 250 261 267 272 259 261 294 276 281 312 312 317 325 330 320 319 354 344 326 320 304 280 241 208 175 162 156 152 155 159 165 171 170 167 164 161 161 166 166 157 152 153
219 229 238 252 265 267 319 30 16 325 290 19 10 359 352 348 324 319 1 4 352 339 333 326 316 136 152 156 149 154 162 167 179 178 171 165 164 164 166 168 162 154 154 160
202 223 229 244 255 269 345 4 12 305 323 356 359 352 351 345 323 322 341 351 343 335 334 340 2 100 137 140 146 161 167 179 174 159 155 157 160 162 162 160 158 158 162 166
207 221 221 227 235 248 20 13 6 335 340 344 346 342 337 327 324 331 334 332 333 340 0 16 44 66 82 119 144 162 172 162 146 147 152 157 159 161 161 160 164 168 171 176
217 226 246 236 247 318 350 347 353 356 341 340 336 328 325 320 319 319 321 323 330 353 11 24 67 76 74 115 142 162 163 145 145 151 159 161 162 162 163 167 173 177 181 185
294 341 304 290 286 319 324 350 359 351 334 329 325 320 319 311 311 315 317 319 318 335 359 37 111 146 176 158 149 161 153 150 154 163 167 168 169 170 173 177 180 186 190 193
272 282 274 273 296 313 328 351 343 335 329 324 324 320 312 306 304 307 308 314 314 310 326 279 183 190 190 167 168 160 155 157 167 173 174 175 178 177 183 188 194 196 201 198
228 233 270 279 327 315 306 321 322 318 316 315 314 311 309 302 300 302 298 302 304 298 295 274 223 208 202 171 164 160 159 165 173 179 180 180 180 182 185 189 201 211 209 214
Height
1494 1496 1497 1496 1495 1494 1495 1495 1495 1493 1492 1496 1499 1498 1496 1495 1496 1498 1500 1502 1504 1506 1508 1511 1513 1516 1518 1521 1524 1526 1528 1531 1533 1536 1538 1541 1543 1545 1547 1549 1551 1552 1554 1555
1496 1497 1495 1493 1494 1494 1495 1497 1496 1494 1492 1495 1498 1497 1494 1493 1493 1494 1496 1498 1500 1503 1505 1507 1509 1512 1515 1517 1520 1522 1525 1527 1530 1532 1534 1537 1539 1541 1543 1545 1547 1549 1550 1551
1496 1496 1494 1494 1495 1495 1495 1497 1497 1498 1496 1495 1498 1498 1493 1489 1489 1490 1491 1494 1496 1498 1501 1503 1505 1508 1511 1513 1516 1518 1521 1523 1526 1529 1531 1533 1536 1538 1540 1541 1543 1544 1546 1547
1496 1496 1495 1495 1495 1495 1498 1494 1496 1498 1502 1503 1500 1506 1491 1485 1485 1485 1486 1489 1491 1494 1496 1499 1501 1503 1506 1509 1512 1515 1517 1520 1522 1525 1527 1529 1531 1533 1535 1537 1538 1540 1541 1542
1498 1497 1497 1497 1496 1496 1497 1496 1498 1499 1502 1504 1499 1503 1491 1479 1481 1480 1481 1483 1486 1489 1492 1494 1497 1499 1502 1505 1508 1511 1514 1516 1518 1520 1523 1525 1527 1529 1531 1533 1534 1535 1536 1537
1498 1498 1498 1498 1497 1497 1498 1499 1500 1501 1505 1512 1499 1501 1492 1478 1474 1473 1475 1478 1481 1484 1487 1490 1493 1495 1498 1501 1504 1506 1509 1512 1514 1517 1519 1521 1523 1525 1527 1528 1530 1531 1532 1532
1500 1499 1498 1498 1499 1499 1500 1507 1513 1514 1515 1508 1489 1491 1484 1469 1466 1468 1471 1474 1477 1480 1482 1485 1488 1490 1493 1496 1499 1502 1504 1507 1510 1512 1515 1517 1520 1522 1523 1524 1526 1526 1527 1528
1502 1502 1497 1497 1498 1500 1501 1504 1512 1513 1508 1498 1485 1487 1476 1464 1464 1465 1469 1471 1474 1476 1479 1482 1484 1486 1489 1491 1495 1497 1500 1503 1505 1508 1510 1513 1515 1517 1519 1520 1521 1522 1522 1523
1498 1499 1494 1496 1497 1499 1500 1502 1501 1506 1502 1500 1490 1477 1468 1462 1463 1465 1468 1470 1472 1475 1477 1479 1481 1483 1485 1488 1490 1493 1496 1499 1501 1504 1506 1509 1511 1513 1515 1516 1517 1518 1518 1518
1494 1498 1496 1496 1499 1499 1500 1499 1503 1507 1506 1500 1486 1479 1474 1466 1464 1465 1467 1469 1471 1473 1475 1477 1479 1480 1482 1484 1487 1490 1492 1495 1497 1500 1503 1505 1507 1509 1510 1512 1513 1513 1514 1514
1495 1499 1498 1498 1499 1498 1500 1501 1500 1500 1498 1500 1493 1483 1465 1464 1463 1465 1467 1469 1471 1472 1474 1475 1477 1478 1480 1481 1484 1486 1489 1491 1494 1496 1499 1501 1503 1505 1506 1507 1508 1509 1509 1509
1495 1498 1499 1495 1491 1492 1493 1493 1496 1502 1499 1493 1494 1487 1465 1465 1465 1465 1467 1468 1470 1471 1472 1474 1475 1476 1477 1479 1481 1483 1485 1488 1490 1493 1496 1498 1500 1501 1502 1503 1504 1505 1505 1505
1494 1498 1502 1497 1496 1493 1492 1490 1491 1494 1496 1495 1494 1485 1467 1467 1467 1467 1468 1469 1469 1470 1471 1472 1473 1474 1475 1476 1478 1480 1482 1485 1487 1490 1492 1494 1496 1497 1499 1499 1500 1500 1501 1501
1495 1496 1499 1497 1491 1491 1492 1490 1489 1493 1497 1493 1486 1478 1471 1469 1468 1468 1468 1468 1468 1469 1469 1470 1470 1471 1472 1474 1475 1477 1479 1482 1484 1486 1488 1490 1492 1494 1495 1496 1496 1496 1497 1497
1494 1495 1492 1489 1486 1485 1487 1486 1485 1488 1488 1489 1480 1475 1470 1468 1467 1467 1467 1466 1466 1466 1467 1467 1468 1468 1469 1471 1472 1474 1476 1478 1481 1483 1485 1487 1489 1490 1491 1492 1492 1492 1493 1493
1492 1492 1491 1488 1483 1482 1482 1479 1479 1479 1478 1478 1476 1471 1466 1466 1465 1464 1464 1464 1463 1463 1464 1464 1465 1465 1466 1467 1468 1470 1472 1475 1477 1479 1482 1483 1485 1486 1487 1488 1488 1489 1489 1489
1490 1491 1493 1490 1482 1481 1482 1472 1471 1470 1468 1469 1470 1466 1463 1463 1462 1461 1461 1461 1460 1460 1460 1460 1461 1461 1462 1463 1464 1466 1469 1471 1473 1476 1478 1479 1481 1482 1483 1484 1484 1485 1485 1485
1489 1490 1492 1491 1488 1490 1473 1464 1463 1463 1462 1462 1461 1461 1460 1460 1459 1458 1458 1458 1457 1457 1456 1456 1457 1457 1458 1459 1461 1463 1465 1467 1469 1472 1473 1475 1477 1478 1479 1480 1481 1481 1481 1482
1485 1489 1492 1492 1489 1478 1468 1464 1463 1463 1463 1461 1460 1459 1458 1457 1456 1456 1456 1455 1454 1454 1453 1453 1453 1453 1454 1455 1457 1459 1461 1463 1465 1467 1469 1471 1473 1474 1475 1476 1477 1477 1478 1478
1484 1486 1491 1489 1488 1481 1469 1465 1462 1464 1465 1463 1462 1461 1460 1458 1459 1458 1455 1453 1452 1451 1450 1449 1449 1450 1451 1452 1453 1455 1457 1459 1461 1463 1465 1467 1469 1470 1471 1472 1473 1473 1474 1475
1486 1487 1489 1488 1486 1475 1469 1466 1465 1471 1471 1466 1464 1463 1461 1460 1460 1458 1454 1452 1450 1448 1447 1446 1446 1447 1447 1448 1450 1451 1453 1455 1457 1460 1461 1463 1465 1466 1467 1468 1469 1470 1471 1471
1483 1484 1484 1482 1483 1479 1470 1467 1470 1471 1467 1465 1464 1462 1461 1459 1457 1455 1453 1450 1448 1447 1445 1445 1444 1444 1445 1445 1447 1448 1450 1452 1454 1456 1457 1459 1461 1462 1463 1464 1465 1466 1467 1468
1477 1478 1477 1477 1476 1470 1469 1469 1469 1468 1466 1464 1463 1461 1459 1457 1455 1453 1451 1449 1447 1445 1444 1443 1443 1443 1443 1444 1445 1446 1447 1449 1450 1452 1453 1455 1457 1458 1459 1460 1461 1462 1463 1464
1475 1474 1475 1473 1468 1468 1468 1467 1467 1466 1464 1463 1461 1459 1457 1454 1452 1451 1449 1447 1445 1444 1442 1442 1441 1441 1441 1441 1442 1443 1445 1446 1447 1448 1450 1451 1452 1454 1455 1456 1457 1458 1458 1460
1476 1475 1475 1473 1469 1467 1466 1466 1465 1463 1461 1459 1458 1456 1454 1452 1449 1448 1446 1445 1443 1442 1441 1440 1440 1439 1439 1440 1440 1441 1442 1443 1444 1445 1446 1447 1448 1449 1450 1452 1453 1453 1455 1456
1474 1474 1475 1473 1470 1469 1466 1464 1462 1460 1458 1456 1454 1451 1450 1448 1446 1444 1443 1442 1441 1440 1439 1438 1438 1437 1437 1437 1437 1438 1439 1439 1440 1441 1442 1443 1444 1445 1446 1447 1448 1449 1451 1452